Printer-friendly version

IAU Minor Planet Center

Minor Planet Center

MPEC 2007-O37 : 2005 OE3

The following Minor Planet Electronic Circular may be linked-to from your own Web pages, but must not otherwise be redistributed electronically.


Read MPEC 2007-O36 Read MPEC 2007-O38


M.P.E.C. 2007-O37                                Issued 2007 July 22, 16:21 UT

     The Minor Planet Electronic Circulars contain information on unusual
         minor planets and routine data on comets.  They are published
   on behalf of Commission 20 of the International Astronomical Union by the
          Minor Planet Center, Smithsonian Astrophysical Observatory,
                          Cambridge, MA 02138, U.S.A.

             Prepared using the Tamkin Foundation Computer Network

                              MPC@CFA.HARVARD.EDU
          URL http://www.cfa.harvard.edu/iau/mpc.html  ISSN 1523-6714

                                   2005 OE3

                           Revision to MPEC 2005-P03

Additional Observations:
     K05O03E 5C2007 07 19.46007 01 18 04.34 -13 13 52.3          20.2 R EO037673
     K05O03E 5C2007 07 19.46762 01 18 06.04 -13 13 07.6                 EO037673
     K05O03E 5C2007 07 19.48090 01 18 09.27 -13 11 51.4                 EO037673
     K05O03E 5C2007 07 20.45949 01 22 14.82 -11 32 35.0          20.2 R EO037673
     K05O03E 5C2007 07 20.47030 01 22 17.41 -11 31 29.4                 EO037673
     K05O03E 5C2007 07 20.47581 01 22 18.74 -11 30 55.9                 EO037673

Observer details:
673 Table Mountain Observatory, Wrightwood.  Observer J. Young.  0.61-m f/16
    Cassegrain + CCD.

First and last observations above in comparison with prediction:
Residuals in seconds of arc, reference and Delta-T
070719 673  9.1+ 21.1+    070720 673  8.2+ 18.9+    MPO112895   -0.0018 day

Orbital elements:
2005 OE3                                            PHA, Earth MOID = 0.0262 AU
Epoch 2007 Apr. 10.0 TT = JDT 2454200.5                 MPC
M 279.75090              (2000.0)            P               Q
n   0.50232626     Peri.   58.30751     +0.89145989     -0.36462380
a   1.5672759      Node   321.13153     +0.10160346     +0.73938779
e   0.4282266      Incl.   25.38035     +0.44156087     +0.56599928
P   1.96           H   20.2           G   0.15           U   1
Residuals in seconds of arc (radar residuals in s.d.)
050729 E12  0.1-  0.2+    050813 844  0.5-  0.0+    050816 160  0.2-  0.4+
050729 E12  0.4-  0.3+    050813 844  0.3-  0.2+    050816 160  0.3-  0.6+
050729 E12  0.0-  0.5+    050813 844  0.4-  0.2+    050816 160  0.1-  0.1-
050729 E12  0.8-  0.2+    050813 844  0.2+  0.2-    050816 160  0.4-  0.5+
050730 423  0.1-  0.1+    050813 844  0.3-  0.2+    050816 160  0.1-  0.4+
050730 423  0.4-  0.0+    050813 844  0.5-  0.6+    050816 160  0.2-  0.4+
050730 423  0.4+  0.2+    050813 844  0.4-  0.3+    050816 160  0.3-  0.7+
050730 423  0.0-  0.1+    050813 844  0.2-  0.1+    050817 198  0.3+  0.3-
050730 E12  0.3+  0.2+    050813 844  0.2-  0.3+    050817 198  0.2+  0.5-
050730 E12  0.1-  0.1-    050813 844  0.2-  0.0-    050817 198  0.1+  0.5-
050730 E12  0.2-  0.1+    050813 844  0.1-  0.2+    050817 151  0.1-  0.1-
050730 E12  0.1+  0.1+    050813 844  0.2-  0.1+    050817 151  0.1+  0.3-
050731 I77  0.1-  0.1+    050813 844  0.3-  0.1+    050817 151  0.1+  0.0-
050731 I77  0.1-  0.2-    050813 844  0.1-  0.2-    050817 198  0.0-  0.1+
050731 I77  0.2+  0.1+    050813 844  0.3-  0.2-    050817 198  0.3-  0.0+
050731 423  0.0-  0.4+    050813 844  0.2-  0.0+    050817 113  0.6+  0.5-
050731 423  0.0-  0.0+    050813 844  0.2-  0.1+    050817 113  0.9+  0.5-
050731 E12  0.4-  0.6+    050813 844  0.1-  0.1-    050817 113  0.0+  0.5+
050731 E12  0.3-  0.0+    050813 844  0.1-  0.0-    050817 113  0.5+  0.0+
050731 423  0.2-  0.1-    050813 844  0.1-  0.0+    050817 113  0.3+  0.2-
050731 E12  0.1-  0.2-    050813 844  0.0-  0.2-    050817 113  0.1+  0.7+
050731 E12  0.0-  0.1+    050813 844  0.2-  0.0+    050817 113  0.3+  0.2-
050801 E12  0.1+  0.1-    050813 844  0.0-  0.1-    050817 113  0.0+  0.3+
050801 E12  0.7+  0.2-    050813 844  0.3-  0.0-    050817 113  0.4+  0.0-
050801 E12  0.1-  0.1+    050813 844  0.2-  0.0-    050817 113  0.2+  0.1+
050801 423  0.0-  0.2+    050813 844  0.4-  0.2-    050817 A53  0.5+  0.3-
050801 423  0.4+  0.4+    050813 844  0.5-  0.0+    050817 A53  0.0-  0.5+
050801 423  0.4+  0.3-    050813 844  0.5-  0.1+    050817 A53  0.1+  0.0-
050802 423  0.4+  0.1-    050813 844  0.3-  0.2-    050818 932  0.1+  0.5-
050802 423  0.3-  0.2-    050813 844  0.8-  0.3+    050818 932  0.1+  0.2-
050802 423  0.1-  0.1+    050813 844  0.5-  0.0+    050818 932  0.2+  0.5-
050803 474  0.3+  0.3-    050813 844  0.4-  0.2-    050818 113  0.9+  0.3-
050803 474  0.2-  0.3-    050813 844  0.6-  0.3+    050818 113  0.3+  0.1-
050804 844  0.9-  0.6+    050813 844  0.5-  0.1+    050818 113  0.4+  0.0+
050804 844 (2.6-  1.1+)   050813 E12  0.3-  0.1+    050818 113  0.3+  0.2+
050804 844  0.9-  1.7+    050813 E12  0.4-  0.1+    050818 113  0.9+  0.4-
050804 844  1.6-  0.0-    050813 E12  0.7-  0.0+    050818 113  0.8+  0.5-
050804 844  1.7-  0.7+    050813 E12  0.3-  0.1-    050818 113  0.7+  0.2-
050804 423  0.0+  0.0-    050814 J95  0.1-  0.2-    050818 113  0.5+  0.6-
050804 423  0.1-  0.1-    050814 J95  0.0+  0.2-    050818 113  0.4+  0.3-
050804 423  0.3+  0.3+    050814 J95  0.0+  0.3-    050818 113  0.9+  0.6-
050804 423  0.2-  0.2-    050814 J95  0.1+  0.4-    050818 084  0.0+  0.0-
050805 423  0.0+  0.0-    050814 A48 (1.4-  3.4+)   050818 084  0.4+  0.4-
050805 423  0.1-  0.1+    050814 A48 (1.7-  3.7+)   050818 084  0.1+  0.2+
050805 423  0.0+  0.1-    050814 A48 (1.6-  3.1+)   050818 084  0.2+  0.2+
050805 423  0.1-  0.1-    050814 A48 (1.8-  3.8+)   050819 932  0.0-  0.3+
050805 E12  0.5-  0.1-    050814 A48 (1.2-  2.7+)   050819 932  0.2+  0.3+
050805 E12  0.0+  0.8-    050815 A53  0.5+  0.2+    050819 932  0.1-  0.5+
050805 E12  0.2-  0.2+    050815 A53  0.4+  0.3-    050819 379  0.5+  0.0+
050805 E12  0.1+  0.1+    050815 A53  0.5+  0.0-    050819 379  0.6+  0.2-
050806 808  0.9-  1.1+    050815 A53  0.1-  0.1+    050819 379  0.7+  0.2-
050806 808  0.8+  0.1+    050815 A53  0.3+  0.2-    050819 379  0.7+  0.4-
050806 808  0.7+  0.3-    050815 A53  0.2+  0.2-    050819 379  0.7+  0.3-
050806 423  0.0+  0.1-    050815 A53  0.3+  0.3-    050819 084  0.0-  0.6+
050806 423  0.0+  0.1-    050815 A53  0.4+  0.0-    050819 084  0.2+  0.0-
050806 423  0.0+  0.1+    050815 A53  0.2+  0.1+    050819 084  0.0-  0.1+
050806 423  0.1+  0.2-    050815 A53  0.1+  0.3+    050819 084  0.2-  0.7+
050806 423  0.1+  0.1-    050815 A53  0.4+  0.1-    050820 379  0.5-  0.5-
050806 423  0.0-  0.1-    050815 A53  0.6-  0.6+    050820 379  0.5-  0.8-
050807 844  0.6-  0.2+    050815 A53  0.2-  0.5+    050820 379  0.1+  0.8-
050807 844  0.9-  0.0+    050815 A53  0.5+  0.3-    050820 379  0.3-  0.6-
050807 844  0.3-  0.3+    050815 130  0.2+  0.1+    050820 084  0.5-  0.2+
050807 844  0.1-  0.1+    050815 130  0.3-  0.3+    050820 084  0.4+  0.2+
050807 844  0.3-  0.1+    050815 130  0.1-  0.2+    050821 253/253D 0.253+
050807 844  0.3-  0.1-    050815 130  0.3-  0.1+    050821 253/253D 0.405+
050807 844  0.5-  0.1+    050815 130  0.3+  0.7-    050821 253/253R 0.023+
050807 844  0.5-  0.1+    050816 160  0.7-  1.3+    050821 253/253R 1.578-
050807 844  0.4-  0.1+    050816 160  0.1-  0.1+    050821 253/253R 0.384+
050807 423  0.0+  0.1-    050816 198  0.0-  0.0+    050829 461  0.2+  0.0+
050807 423  0.1-  0.0-    050816 198  0.0-  0.0+    050829 461  0.2+  0.2+
050807 423  0.1-  0.2-    050816 160  0.4-  0.5+    050829 461  0.4+  0.2+
050807 423  0.1-  0.1-    050816 198  0.1-  0.1+    050829 461  0.0-  0.2+
050807 423  0.1+  0.0+    050816 198  0.2-  0.3+    050905 461  0.7+  0.6+
050807 423  0.1+  0.1-    050816 160  0.1-  0.4-    050905 461  0.5-  0.3+
050807 423  0.1-  0.2-    050816 198  0.3-  0.3+    050905 461  0.0+  0.2-
050808 808  1.0-  0.9+    050816 160  0.5-  0.7+    051228 696  0.7-  0.2+
050808 808  0.2+  0.1+    050816 160  0.2+  0.6-    051228 696  0.4-  0.5+
050808 808  0.9+  1.1-    050816 160  0.0+  0.3-    070719 673  0.3+  1.3+
050810 E12  0.2-  0.1+    050816 160  0.1-  0.1+    070719 673  1.2-  1.4+
050810 E12  0.0-  0.1-    050816 160  0.0-  0.0+    070719 673  0.2-  1.0-
050810 E12  0.3-  0.2+    050816 160  0.2-  0.1+    070720 673  0.3+  1.2+
050810 E12  0.1-  0.1+    050816 160  0.1-  0.0+    070720 673  0.5-  0.4-
050813 844  1.9+  0.4-    050816 160  0.3-  0.2+    070720 673  0.7-  1.2-

Ephemeris:
2005 OE3                 a,e,i = 1.57, 0.43, 25                  q = 0.8961
Date    TT    R. A. (2000) Decl.     Delta      r     Elong.  Phase     V
2007 07 19    01 16.16   -13 58.6    0.297    1.121   103.0    62.0    20.0
2007 07 29    02 02.94   +06 22.4    0.240    1.062    94.6    72.4    19.8
2007 08 08    03 07.87   +31 58.8    0.233    1.008    81.8    85.0    20.0
2007 08 18    04 39.17   +51 18.4    0.277    0.962    71.6    92.5    20.6
2007 08 28    06 26.67   +59 25.2    0.352    0.926    66.2    93.5    21.1
2007 09 07    07 58.83   +60 04.8    0.438    0.904    63.7    90.5    21.4
2007 09 17    09 02.91   +57 28.8    0.525    0.896    62.7    85.8    21.6
2007 09 27    09 46.33   +53 41.9    0.606    0.904    62.8    80.5    21.7
2007 10 07    10 17.49   +49 32.6    0.676    0.927    63.8    75.3    21.8
2007 10 17    10 41.20   +45 21.6    0.732    0.963    65.7    70.5    21.9
2007 10 27    10 59.90   +41 18.8    0.771    1.010    68.5    66.3    22.0
2007 11 06    11 14.80   +37 29.7    0.795    1.064    72.2    62.5    22.1
2007 11 16    11 26.27   +33 58.0    0.801    1.124    77.0    59.0    22.1
2007 11 26    11 34.23   +30 44.9    0.793    1.187    82.9    55.6    22.1
2007 12 06    11 38.29   +27 50.7    0.772    1.252    90.0    51.9    22.0
2007 12 16    11 37.61   +25 15.3    0.741    1.317    98.5    47.7    21.9
2007 12 26    11 31.15   +22 55.9    0.705    1.381   108.6    42.4    21.8
2008 01 05    11 17.85   +20 48.4    0.670    1.445   120.7    35.8    21.6
2008 01 15    10 57.06   +18 46.1    0.643    1.507   134.7    27.6    21.4
2008 01 25    10 29.78   +16 41.6    0.633    1.567   150.6    18.0    21.1
2008 02 04    09 59.26   +14 33.1    0.648    1.624   167.4     7.6    20.9
2008 02 14    09 30.21   +12 27.2    0.693    1.680   175.7     2.5    20.8
2008 02 24    09 06.66   +10 33.8    0.768    1.732   160.5    11.0    21.5
2008 03 05    08 50.25   +08 58.8    0.868    1.783   146.8    17.7    22.1

     This recovery MPEC was not published yesterday because the observations
got handled entirely automatically and no notification of the recovery was
made to the MPC staff.

Gareth V. Williams           (C) Copyright 2007 MPC           M.P.E.C. 2007-O37

Read MPEC 2007-O36 Read MPEC 2007-O38


Our Web policy. Index to the CBAT/MPC/ICQ pages.


Valid HTML 4.01!